FENGYUN 1C DEB, 32111

Orbit data source: Space-Track

FENGYUN 1C DEB, 32111 is space debris in SSO originally from a launch on Mon, 10 May 1999 UTC launched from the Taiyaun Space Center, China (TSC). Fengyun 1C debris stems from the Chinese weather satellite Fengyun-1C, which was intentionally destroyed by a Chinese anti-satellite missile in 2007. This event dramatically increased the amount of space debris, with thousands of trackable fragments posing hazards to satellites and human spaceflight. The Fengyun 1C debris cloud has become a focal point in discussions about space sustainability and the need for international regulations to prevent the creation of new debris.

Loading next visibility...
Identifier
32111, 1999-025CRD
Orbit
SSO
Country
Flag of CNCN / PRC
Related business
Manufacturer
Unknown
Mission
Spacecraft
Bus & Motor
Unknown
Mass
Unknown
Launch date (UTC)
1999-05-10 (27 years ago)
Launch vehicle
Unknown
Launch site
Taiyaun Space Center, China (TSC)
Object type
Payload
Rocket body
Debris
Shape & HBR
Unknown shape, 0.1 m
Radar Cross Section
Small (<0.1 m²)

Expand to show TLE details & history
Last TLE update: 2 days ago

TLE from 2 days ago
0 FENGYUN 1C DEB
1 32111U 99025CRD 25351.96908437  .00000428  00000-0  16397-3 0  9998
2 32111  98.4433 351.5571 0119987 189.3360 199.2635 14.31552028961061
Epoch: 2025-12-17T23:15Z
TLE epoch observation values (Epoch: 2025-12-17T23:15:28.889Z)
Latitude
27.86224°
Longitude
-88.62151°
Altitude
871.266 km
Speed
7.377 km/s
True Right ascension
23h 08m 19s
True Declination
27° 43' 21"
Sunlit
Object was in daylight at epoch
Visualization orbit readout
Latitude
Unknown
Longitude
Unknown
Altitude
Unknown
Speed
Unknown
Apparent Right ascension
Unknown
Apparent Declination
Unknown
Sunlit
N/A
Visualization observer readout
Local Sidereal Time
10:31:35
Azimuth
Unknown
Elevation
Unknown
Doppler factor
Unknown
Orbital elements
Apogee altitude
869.61 km
Perigee altitude
697.745 km
Semi-major axis
7,161.815 km
Eccentricity
0.012
Inclination
98.4433°
RAAN
351.5571°
Arg. of periapsis
189.336°
True anomaly
198.81623°
Mean anomaly
199.2635°
Eccentric anomaly
199.03924°
Mean motion
3.58103 °/min
Orbital period
100.53 mins
BSTAR
0.00016397
Loading maneuver chart data...
Computing Atmospheric mass density...

Documentation

Showing up to 5 results
|